Location: DARK SKY Beskydy - Park tmavé oblohy, www.darkskybeskydy.cz
(49.4926°N, 18.5016°E)
Time: 02:26:35
(UTC+02:00)

A-11 Canister half - Pass Details

Date: 28 February 2024
Orbit: 1513 x 1686 km, 47.2° (Epoch: 24 April)

Event Time Altitude Azimuth Distance (km) Brightness Sun altitude
Rises 06:30:24 0° 287° (WNW) 4,913 - -1.1°
Exits shadow 06:30:46 - 287° (WNW) 4,802 10.9 -1.0°
Reaches altitude 10° 06:33:43 10° 283° (WNW) 3,906 10.5 -0.6°
Maximum altitude 06:43:05 48° 213° (SSW) 2,020 9.6 0.9°
Drops below altitude 10° 06:52:07 10° 143° (SE) 3,767 12.0 2.3°
Sets 06:55:16 0° 138° (SE) 4,727 12.7 2.8°
